| time (UTC) | temp F | wind direction | speed MPH | gust MPH | rain 1hr in | rain 24hr in | rain mn in | humidity % | barometer mb |
| 20260504173209 | 67 | 277 | 4.0 | 0.0 | 0.00 | 0.00 | 0.00 | 50 | 1009.8 |
| 20260504170210 | 68 | 217 | 4.0 | 0.0 | 0.00 | 0.00 | 0.00 | 51 | 1009.7 |
| 20260504160210 | 72 | 207 | 9.0 | 0.0 | 0.00 | 0.00 | 0.00 | 52 | 1009.3 |
| 20260504150210 | 73 | 234 | 4.0 | 0.0 | 0.00 | 0.00 | 0.00 | 32 | 1009.0 |
| 20260504140209 | 73 | 236 | 6.0 | 0.0 | 0.00 | 0.00 | 0.00 | 33 | 1009.2 |
| 20260504130215 | 76 | 84 | 4.0 | 0.0 | 0.00 | 0.00 | 0.00 | 30 | 1009.7 |
| 20260504120210 | 74 | 298 | 6.0 | 0.0 | 0.00 | 0.00 | 0.00 | 36 | 1010.1 |
| 20260504110210 | 73 | 250 | 7.0 | 0.0 | 0.00 | 0.00 | 0.00 | 40 | 1010.6 |
| 20260504100212 | 71 | 36 | 4.0 | 0.0 | 0.00 | 0.00 | 0.00 | 41 | 1011.2 |
| 20260504080210 | 62 | 71 | 0.0 | 0.0 | 0.00 | 0.00 | 0.00 | 61 | 1012.4 |
| 20260504070212 | 58 | 98 | 2.0 | 0.0 | 0.00 | 0.00 | 0.00 | 68 | 1012.7 |
| 20260504060212 | 55 | 97 | 3.0 | 0.0 | 0.00 | 0.00 | 0.00 | 75 | 1012.6 |
| 20260504050210 | 51 | 52 | 2.0 | 0.0 | 0.00 | 0.00 | 0.00 | 84 | 1012.7 |
| 20260504043211 | 50 | 53 | 0.0 | 0.0 | 0.00 | 0.00 | 0.00 | 85 | 1012.7 |
| 20260504040211 | 50 | 53 | 0.0 | 0.0 | 0.00 | 0.00 | 0.00 | 85 | 1012.8 |
| 20260504033211 | 50 | 54 | 0.0 | 0.0 | 0.00 | 0.00 | 0.00 | 85 | 1012.8 |
| 20260504030212 | 52 | 50 | 0.0 | 0.0 | 0.00 | 0.00 | 0.00 | 82 | 1013.2 |
| 20260504023211 | 53 | 51 | 0.0 | 0.0 | 0.00 | 0.00 | 0.00 | 80 | 1013.2 |
| 20260504020212 | 54 | 53 | 0.0 | 0.0 | 0.00 | 0.00 | 0.00 | 79 | 1013.1 |
| 20260504013211 | 54 | 53 | 0.0 | 0.0 | 0.00 | 0.00 | 0.00 | 77 | 1013.0 |
| 20260504010211 | 55 | 52 | 0.0 | 0.0 | 0.00 | 0.00 | 0.00 | 77 | 1013.2 |
| 20260504003210 | 55 | 9 | 2.0 | 0.0 | 0.00 | 0.00 | 0.00 | 77 | 1013.5 |
| 20260504000208 | 55 | 238 | 0.0 | 0.0 | 0.00 | 0.00 | 0.00 | 78 | 1013.7 |
| 20260503233209 | 55 | 238 | 0.0 | 0.0 | 0.00 | 0.00 | 0.00 | 76 | 1014.0 |
| 20260503230209 | 56 | 238 | 0.0 | 0.0 | 0.00 | 0.00 | 0.00 | 73 | 1014.2 |
| 20260503223210 | 57 | 238 | 0.0 | 0.0 | 0.00 | 0.00 | 0.00 | 72 | 1014.2 |
| 20260503220212 | 58 | 238 | 0.0 | 0.0 | 0.00 | 0.00 | 0.00 | 69 | 1013.8 |
| 20260503213210 | 58 | 238 | 0.0 | 0.0 | 0.00 | 0.00 | 0.00 | 67 | 1013.6 |
| 20260503210211 | 59 | 238 | 0.0 | 0.0 | 0.00 | 0.00 | 0.00 | 66 | 1013.4 |
| 20260503203209 | 59 | 238 | 2.0 | 0.0 | 0.00 | 0.00 | 0.00 | 64 | 1013.2 |
| 20260503200211 | 60 | 247 | 4.0 | 0.0 | 0.00 | 0.00 | 0.00 | 62 | 1012.8 |
| 20260503193210 | 62 | 251 | 4.0 | 0.0 | 0.00 | 0.00 | 0.00 | 57 | 1012.6 |
| 20260503190210 | 64 | 225 | 8.0 | 0.0 | 0.00 | 0.00 | 0.00 | 53 | 1012.0 |
| 20260503183209 | 64 | 267 | 11.0 | 0.0 | 0.00 | 0.00 | 0.00 | 49 | 1011.6 |
| 20260503180210 | 68 | 203 | 18.0 | 0.0 | 0.00 | 0.00 | 0.00 | 45 | 1011.5 |